NOAA 16 DEB, 42335

Orbit data source: Space-Track

NOAA 16 DEB, 42335 is space debris in SSO originally from a launch on Thu, 21 Sep 2000 UTC launched from the Air Force Western Test Range (AFWTR). Debris objects in space refer to the collection of defunct objects orbiting the Earth. Examples of debris include non-operational satellites, rocket bodies, and fragments generated from explosions, collisions, or faulty payload assembly.

Loading next visibility...
NOAA 16 DEB details
Identifier
42335, 2000-055QB
Orbit
SSO
Last TLE update1 day ago
Origin
Flag of USNOAA (US)
ManufacturerUnknown
MissionSpacecraft
Bus & MotorUnknown
MassUnknown
Launch date (UTC)
2000-09-21 (24 years ago)
Launch vehicleUnknown
Launch site
Air Force Western Test Range (AFWTR)
Object type
Payload
Rocket body
Debris
Shape & HBRUnknown
Radar Cross SectionSmall (<0.1 m²)

Expand to show TLE details & history

TLE from 1 day ago
0 NOAA 16 DEB
1 42335U 00055QB  24336.38478903  .00011062  00000-0  43380-2 0  9997
2 42335  98.5973  29.6599 0026866  59.5191 300.8639 14.29337023452596
Epoch: 2024-12-01T09:14Z
Definitive object data (Epoch: 2024-12-01T09:14:05.772Z)
Latitude-0.00002°
Longitude-179.58791°
Altitude787.03 km
Speed7.465 km/s
True Right ascension01h 58m 38s
True Declination0° 00' 00"
Sunlit
Object was in full shadow at TLE epoch
Visualization TLE readout
Latitude18.26721°
Longitude178.6061°
Altitude781.04 km
Speed7.473 km/s
Apparent Right ascension23h 37m 35s
Apparent Declination-11° 46' 21"
Sunlit
Object is in full shadow
Visualization observer readout
Local Sidereal Time08:17:50
Azimuth288.302° WNW
Elevation-37.893°
Doppler factor1
Orbital elements
Apogee altitude810.349 km
Perigee altitude771.828 km
Semi-major axis7,169.225 km
Eccentricity0.0026866
Inclination98.5973°
RAAN29.6599°
Arg. of periapsis59.5191°
True anomaly300.59918°
Mean anomaly300.8639°
Eccentric anomaly300.73159°
Mean motion3.57548 °/min
BSTAR0.004338
Orbital period100.69 mins
Loading maneuver chart data...
Loading historical data...
Loading historical data...
Loading historical data...
Loading historical data...
Loading historical data...
Loading historical data...
Loading historical data...

NOAA 16 DEB Visibility forecast

Observer location: undefined°, undefined

Span
Click to sort rows by Start time (UTC) header in descending order
Start Az.
Max El. time (UTC)
Max El. Az.
Max El.
End time (UTC)
End Az.
9 mins2024-12-02 16:03:15.526Z30.375° NE2024-12-02 16:08:15.526Z111.137° ESE32.172°2024-12-02 16:12:15.526Z165.625° S
6 mins2024-12-02 17:44:15.526Z336.962° NNW2024-12-02 17:47:15.526Z291.938° WNW22.629°2024-12-02 17:50:15.526Z249.223° W
8 mins2024-12-03 03:22:15.526Z144.358° SSE2024-12-03 03:25:15.526Z94.413° ESE39.095°2024-12-03 03:30:15.526Z356.444° N
4 mins2024-12-03 05:04:15.526Z249.793° W2024-12-03 05:05:15.526Z263.294° W15.423°2024-12-03 05:08:15.526Z301.598° NW
|